Regional Weather Roundup
Issued by NWS

Home | Current Version | Previous Version | Graphics & Text | Print | Product List | Glossary On
Versions: 1 2 3 4 5 6 7 8 9 10 11 12 13 14 15 16 17 18 19 20 21 22 23 24 25 26 27 28 29 30 31 32 33 34 35 36 37 38 39 40 41 42 43 44 45 46 47 48 49 50
000
ASUS43 KLSX 281657
RWRMO

WEATHER SUMMARY FOR MISSOURI
NATIONAL WEATHER SERVICE SPRINGFIELD MO
1200 PM CDT FRI AUG 28 2015

NOTE: "FAIR" INDICATES FEW OR NO CLOUDS BELOW 12,000 FEET WITH NO
       SIGNIFICANT WEATHER AND/OR OBSTRUCTIONS TO VISIBILITY.
       CURRENT SKY AND/OR WEATHER CONDITIONS ARE NOT AVAILABLE FOR
       CHILLICOTHE AND FARMINGTON.

MOZ001>031-035>038-043-044-053-054-281800-
...NORTHERN AND WESTERN MISSOURI...

CITY           SKY/WX    TMP DP  RH WIND       PRES   REMARKS
KANSAS CTY INT CLOUDY    74  65  73 S15       29.96S
LEE`S SUMMIT   CLOUDY    73  64  73 S10       29.99F
ST JOSEPH      CLOUDY    71  67  87 S13       29.94S

$$
MOZ066>068-077>081-088>096-101>105-281800-
...SOUTHWEST MISSOURI...

CITY           SKY/WX    TMP DP  RH WIND       PRES   REMARKS
SPRINGFIELD    PTSUNNY   75  61  61 S12       30.07S
JOPLIN         CLOUDY    76  65  68 S10       30.05S

$$
MOZ032>034-039>042-045>050-055>058-069>072-281800-
...CENTRAL MISSOURI...

CITY           SKY/WX    TMP DP  RH WIND       PRES   REMARKS
COLUMBIA       NOT AVBL
JEFFERSON CITY CLOUDY    75  60  59 SE8       30.06S
ROLLA          PTSUNNY   76  60  57 S14G22    30.08F
SEDALIA        CLOUDY    77  63  61 S13       30.04F

$$
MOZ051-052-059>065-281800-
...EAST CENTRAL MISSOURI...

CITY           SKY/WX    TMP DP  RH WIND       PRES   REMARKS
ST LOUIS INTL  CLOUDY    79  58  48 SE15      30.11F

$$
MOZ072>076-082>087-097>100-106>115-281800-
...SOUTH CENTRAL AND SOUTHEAST MISSOURI...

CITY           SKY/WX    TMP DP  RH WIND       PRES   REMARKS
CAPE GIRARDEAU MOSUNNY   80  60  50 MISG      30.11F
POPLAR BLUFF   MOSUNNY   79  62  56 VRB3      30.10F
WEST PLAINS    SUNNY     75  59  57 S9        30.13F

$$


USA.gov is the U.S. government's official web portal to all federal, state and local government web resources and services.